Weather Roundup
Issued by NWS Springfield, MO

Home | Current Version | Previous Version | Text Only | Print | Product List | Glossary On
Versions: 1 2 3 4 5 6 7 8 9 10 11 12 13 14 15 16 17 18 19 20 21 22 23 24 25 26 27 28 29 30 31 32 33 34 35 36 37 38 39 40 41 42 43 44 45 46 47 48 49 50
000
NZUS99 KSGF 262007
HRRSGF

HOURLY WEATHER
NATIONAL WEATHER SERVICE SPRINGFIELD MO
200 PM CST FRI DEC 26 2014

......SGF CWA......

CITY           SKY/WX    TMP DP  RH WIND       PRES   REMARKS
SPRINGFIELD    CLOUDY    53  44  71 SE17      29.95F
JOPLIN         CLOUDY    58  47  66 S14       29.91F
WEST PLAINS    CLOUDY    52  43  71 S10       30.05F
ROLLA          CLOUDY    56  43  61 S16G23    29.97F
OSAGE BEACH    CLOUDY    57  43  58 S13G23    29.97R
BRANSON        CLOUDY    54  46  76 SE15G21   30.00F

......SURROUNDING SGF CWA......

CITY           SKY/WX    TMP DP  RH WIND       PRES   REMARKS
CHANUTE        CLOUDY    56  45  66 S12G22    29.89F
PARSONS        CLOUDY    58  47  66 S13G22    29.89F
COFFEYVILLE    CLOUDY    59  47  64 S14       29.88F
EMPORIA        CLOUDY    41  33  73 NW10      29.91S
GROVE OK       CLOUDY    55  48  76 SE13      29.93F
ROGERS AR      CLOUDY    54  47  77 SE9       29.96F
SILOAM SPRINGS CLOUDY    54  45  71 S15       29.96F
HARRISON AR    CLOUDY    51  46  83 S17       30.00F
NEAR YELLVILLE CLOUDY    52  43  71 S8        30.03F

......KANSAS AND MISSOURI......

CITY           SKY/WX    TMP DP  RH WIND       PRES   REMARKS
KANSAS CTY INT CLOUDY    47  37  68 NW6       29.90S
DOWNTOWN KC    CLOUDY    54  42  64 W8        29.90S
COLUMBIA       CLOUDY    60  45  57 S12       29.94F
SEDALIA        CLOUDY    58  44  60 SW17      29.94S
ST JOSEPH      CLOUDY    38  33  82 NW5       29.95R WCI  34
ST LOUIS       MOSUNNY   61  42  49 SW14      30.02F
SPIRIT OF STL  MOSUNNY   60  42  51 S8        30.00F
KIRKSVILLE     MOSUNNY   53  41  63 SW10      29.92F
WICHITA        CLOUDY    39  32  76 N12       29.91F WCI  32
TOPEKA         CLOUDY    41  34  76 NW6       29.94S
OLATHE         CLOUDY    52  42  69 SW9       29.89S

......TENNESSEE......

CITY           SKY/WX    TMP DP  RH WIND       PRES   REMARKS
MEMPHIS        CLOUDY    55  37  50 S10       30.18S
NASHVILLE      PTSUNNY   54  38  54 SE10      30.22F

......ARKANSAS.......

CITY           SKY/WX    TMP DP  RH WIND       PRES   REMARKS
FAYETTEVILLE   CLOUDY    51  47  86 S12       29.97F
FT SMITH       CLOUDY    55  47  74 SE6       29.98F
LITTLE ROCK    CLOUDY    55  41  59 SE8       30.09F

......OKLAHOMA.......

CITY           SKY/WX    TMP DP  RH WIND       PRES   REMARKS
TULSA          CLOUDY    58  50  75 S20       29.87F
PONCA CITY     CLOUDY    50  38  63 NW10      29.88F
MCALESTER      CLOUDY    56  50  80 SE7       29.91F
OKLAHOMA CITY  PTSUNNY   61  44  53 S14G22    29.84F

......IOWA............

CITY           SKY/WX    TMP DP  RH WIND       PRES   REMARKS
DES MOINES     CLOUDY    35  31  85 N8        29.95S FOG     WCI  29
QUAD CITIES    PTSUNNY   51  37  58 SW9       29.93F

......ILLINOIS........

CITY           SKY/WX    TMP DP  RH WIND       PRES   REMARKS
QUINCY         PTSUNNY   54  42  64 SW8       29.96F
CHICAGO        PTSUNNY   49  37  63 SW13G18   29.98S



USA.gov is the U.S. government's official web portal to all federal, state and local government web resources and services.